Current weather by "City, St" or "zip code"  
 
Advertise Here

Current Conditions: Blytheville, Blytheville Municipal Airport, AR

Mostly Cloudy


72.0 F

Last Updated on Sep 16 2021, 9:53 pm CDT
Humidity: 82%
Wind Speed: E 4.6 mph
Barometer 30.00 in
Dewpoint: 66.0 F
Visibility: 10.00 mi
Precip: --
Heat Index: NA
Wind Chill: NA
Current conditions at:

Blytheville, Blytheville Municipal Airport, AR (KHKA)

Lat: 35.93889 Lon: 89.8325

Local Radar Image active severe weather and emergency alerts image image weather storm and storm spotter reports image weather observation monitoring service image
Local
Radar
Active
Alerts
Storm Reports Obs
Monitoring

Sign-up For Email & Text Message Weather Alert Notification Services



Advertise Here

Observation History for Blytheville, Blytheville Municipal Airport, AR


Time Wind
(mph)
Vis
(mi)
Weather Precip (in) Temperature (F) Relative
Humidity
Wind
Chill
(F)
Heat
Index
(F)
Pressure
Air Dwpt altimeter
(in)
sea level
(mb)
Rmks
9:53 pm CDT E 4.6 10.00 Mostly Cloudy -- 72.0 66.0 82% NA NA 30.00 1015.6
8:53 pm CDT E 5.8 10.00 Fair -- 73.0 66.0 79% NA NA 29.99 1015.3
7:53 pm CDT SE 5.8 10.00 Fair -- 76.0 66.9 74% NA NA 29.97 1014.7
6:53 pm CDT SE 5.8 10.00 Partly Cloudy -- 80.0 66.9 64% NA 82 29.96 1014.3
5:53 pm CDT SE 6.9 10.00 Partly Cloudy -- 84.0 68.0 59% NA 87 29.95 1013.9
4:53 pm CDT E 6.9 10.00 Partly Cloudy -- 86.0 66.9 53% NA 89 29.94 1013.4
3:53 pm CDT E 8.1 10.00 Partly Cloudy -- 86.0 66.0 51% NA 88 29.94 1013.6
2:53 pm CDT E 9.2 10.00 Mostly Cloudy -- 84.0 66.0 55% NA 86 29.96 1014.1
1:53 pm CDT E 9.2 10.00 Mostly Cloudy -- 85.0 69.1 59% NA 89 29.98 1014.9
12:53 pm CDT E 6.9 10.00 A Few Clouds -- 84.0 70.0 63% NA 88 30.00 1015.6
11:53 am CDT E 8.1 10.00 Partly Cloudy -- 80.0 70.0 71% NA 83 30.01 1016.0
10:53 am CDT E 5.8 10.00 Mostly Cloudy -- 78.0 69.1 74% NA NA 30.02 1016.3
9:53 am CDT E 5.8 10.00 A Few Clouds -- 77.0 69.1 77% NA NA 30.02 1016.3
8:53 am CDT E 6.9 7.00 Mostly Cloudy -- 72.0 69.1 91% NA NA 30.01 1015.9
7:53 am CDT E 6.9 0.25 Fog -- 70.0 68.0 93% NA NA 30.00 1015.7
6:53 am CDT N 0.0 0.15 Fog -- 67.0 64.9 93% NA NA 29.99 1015.3
5:53 am CDT N 0.0 2.50 Fog/Mist -- 67.0 64.0 91% NA NA 29.97 1014.7
4:53 am CDT NE 4.6 4.00 Fog/Mist -- 68.0 66.0 93% NA NA 29.96 1014.3
3:53 am CDT N 0.0 4.00 Fog/Mist -- 69.0 66.9 93% NA NA 29.95 1014.0
2:53 am CDT NE 3.5 6.00 Fog/Mist -- 70.0 66.9 90% NA NA 29.95 1013.9
1:53 am CDT NE 4.6 6.00 Fog/Mist -- 71.0 68.0 90% NA NA 29.96 1014.1
12:53 am CDT N 0.0 9.00 Partly Cloudy -- 71.0 68.0 90% NA NA 29.96 1014.3
11:53 pm CDT N 0.0 10.00 Fair -- 73.0 70.0 90% NA NA 29.97 1014.4
10:53 pm CDT N 0.0 10.00 Fair -- 73.0 69.1 87% NA NA 29.97 1014.4

Regional Weather Observation


Malden Municipal Airport, MO (KMAW)

Fair
75.0 F

Blytheville, Blytheville Municipal Airport, AR (KHKA)

Mostly Cloudy
72.0 F

Dyersburg, Dyersburg Municipal Airport, TN (KDYR)

A Few Clouds
72.0 F

Corning Municipal Airport, AR (K4M9)

Fair
75.0 F

Walnut Ridge Regional Airport, AR (KARG)

Fair
73.0 F

Poplar Bluff, Poplar Bluff Municipal Airport, MO (KPOF)

Fog/Mist
71.0 F
Advertise Here


Advertise Here